Flag for Switzerland Weather past 2 weeks in Martigny, Valais, Switzerland

Now
88 °F

Pleasantly warm.


Feels Like: 87 °F
Forecast: 73 / 99 °F
Wind: 2 mph from East

Location: Sion

Current Time: Jul 4, 2015 at 1:02:51 PM

Latest Report: Jul 4, 2015 at 12:00 PM


Visibility: N/A

Pressure: 30.11 "Hg

Humidity: 36%

Dew point: 58 °F

Location of MartignyLocation

Historic Weather in Martigny — Graph

°F

Martigny temperature yesterday

Maximum temperature yesterday: 96 °F (at 2:00 PM)
Minimum temperature yesterday: 69 °F (at 6:00 AM)
Average temperature yesterday: 82 °F

Past Weeks' High & Low Weather Summary

 TemperatureHumidityPressure
High96 °F (Jul 2, 5:00 PM)90% (Jun 23, 6:00 AM)30.26 "Hg (Jun 23, 6:00 AM)
Low49 °F (Jun 24, 6:00 AM)26% (Jun 29, 6:00 PM)29.74 "Hg (Jun 23, 12:00 AM)
Average72 °F51%30.05 "Hg
* Reported Jun 19 11:00 AM — Jul 4 11:00 AM, Martigny, Weather by CustomWeather, © 2015

Note: Actual official high and low records may vary slightly from our data, if they occured in-between our weather recording intervals... More about our weather records

Advertising

Martigny weather history for previous 24 hours

 ConditionsComfort  
Time TempWeatherWind HumidityBarometerVisibility
11:00 AM
Sat, Jul 4
85 °FScattered clouds.2 mph40%30.14 "Hg19 mi
10:00 AM81 °FWarm.6 mph45%30.18 "HgN/A
9:00 AM77 °FMild.3 mph55%30.22 "HgN/A
8:00 AM76 °FScattered clouds.5 mph52%30.23 "Hg19 mi
7:00 AM71 °FMild.1 mph60%30.24 "HgN/A
6:00 AM70 °FMild.1 mph64%30.25 "HgN/A
5:00 AM73 °FPassing clouds.3 mph54%30.23 "Hg19 mi
4:00 AM72 °FMild.No wind69%30.24 "HgN/A
3:00 AM75 °FMild.3 mph57%30.22 "HgN/A
2:00 AM79 °FClear.2 mph46%30.20 "Hg19 mi
1:00 AM81 °FWarm.1 mph45%30.19 "HgN/A
12:00 AM76 °FMild.1 mph58%30.19 "HgN/A
11:00 PM
Fri, Jul 3
78 °FClear.2 mph51%30.15 "Hg19 mi
10:00 PM84 °FWarm.5 mph42%30.11 "HgN/A
9:00 PM87 °FPleasantly warm.2 mph35%30.07 "HgN/A
8:00 PM93 °FScattered clouds.8 mph28%30.04 "Hg16 mi
7:00 PM91 °FHot.3 mph28%30.04 "HgN/A
6:00 PM95 °FExtremely hot.17 mph26%30.02 "HgN/A
5:00 PM96 °FScattered clouds.16 mph29%30.03 "Hg19 mi
4:00 PM94 °FExtremely hot.13 mph31%30.05 "HgN/A
3:00 PM94 °FExtremely hot.17 mph33%30.06 "HgN/A
2:00 PM96 °FScattered clouds.5 mph26%30.08 "Hg22 mi
1:00 PM89 °FHot.3 mph38%30.12 "HgN/A
Weather by CustomWeather, © 2015

See weather overviewHow to use our weather pages